Regional Weather Roundup
Issued by NWS

Home | Current Version | Previous Version | Graphics & Text | Print | Product List | Glossary On
Versions: 1 2 3 4 5 6 7 8 9 10 11 12 13 14 15 16 17 18 19 20 21 22 23 24 25 26 27 28 29 30 31 32 33 34 35 36 37 38 39 40 41 42 43 44 45 46 47 48 49 50
000
ASUS45 KABQ 040510
RWRNM
NEW MEXICO REGIONAL WEATHER ROUNDUP
NATIONAL WEATHER SERVICE ALBUQUERQUE NM
1100 PM MDT MON AUG 03 2015

NOTE: "FAIR" MEANS FEW OR NO CLOUDS BELOW 12,000 FEET AGL WITH NO
       SIGNIFICANT WEATHER OR OBSTRUCTIONS TO VISION.

      THIS PRODUCT IS RELEASED AS TWO VERSIONS.  ONE VERSION NEAR
      THE TOP OF THE HOUR CONTAINING PRELIMINARY DATA FROM ALBUQUERQUE
      AND OTHER STATIONS.  A FINAL VERSION WITH ADDITIONAL DATA IS
      ISSUED ABOUT 10 MINUTES AFTER THE HOUR.

NMZ501-503-504-510>518-040600-
NORTHWEST PLATEAU/NORTHCENTRAL MOUNTAINS

CITY           SKY/WX    TMP DP  RH WIND       PRES   REMARKS
FARMINGTON     CLEAR     70  46  42 E7        30.14R
LOS ALAMOS     CLEAR     71  41  33 NW3       30.25S
SANTA FE       CLEAR     67  46  47 NW5       30.18S
TAOS           CLEAR     61  43  51 SE3       30.25R
ANGEL FIRE     FAIR      52  47  85 CALM      30.35R

$$
NMZ402-403-502-505>509-040600-
WESTCENTRAL MOUNTAINS/SOUTHWEST MOUNTAINS

CITY           SKY/WX    TMP DP  RH WIND       PRES   REMARKS
GALLUP         CLEAR     62  52  69 CALM      30.23R
GRANTS         CLEAR     61  55  79 CALM      30.26R
SILVER CITY      N/A     72  55  56 NE5       30.17

$$
NMZ407-409-411-412-040600-
SOUTHERN DESERTS

CITY           SKY/WX    TMP DP  RH WIND       PRES   REMARKS
LORDSBURG      MOCLDY    79  46  31 S8        30.04R
DEMING         CLOUDY    78  60  53 SW8       30.06S
LAS CRUCES     CLOUDY    79  58  48 E9        30.11R
HOLLOMAN AFB   PTCLDY    80  59  48 W18       30.03R
ALAMOGORDO     PTCLDY    77  55  47 S9        30.05R
T OR C         MOCLDY    81  56  42 W6        30.07R

$$
NMZ519>523-040600-
CENTRAL VALLEYS/CENTRAL HIGHLANDS

CITY           SKY/WX    TMP DP  RH WIND       PRES   REMARKS
ALBUQUERQUE    PTCLDY    78  47  33 N3        30.13R
DOUBLE EAGLE   CLEAR     67  51  56 NW9       30.18S
MORIARTY ARPT    N/A     61  50  67 CALM      30.20R
CLINES CORNERS CLEAR     61  49  64 W10       30.23R
BELEN          FAIR      74  42  31 NW6       30.12S
SOCORRO        FAIR      76  49  38 NW8       30.09S

$$
NMZ524>526-539-540-040600-
SOUTHCENTRAL MOUNTAINS

CITY           SKY/WX    TMP DP  RH WIND       PRES   REMARKS
RUIDOSO          N/A    N/A N/A N/A MISG        N/A

$$
NMZ527>531-040600-
NORTHEAST HIGHLANDS/NORTHEAST PLAINS

CITY           SKY/WX    TMP DP  RH WIND       PRES   REMARKS
RATON          PTCLDY    59  55  87 N6        30.20S
CLAYTON        TSTM      62  61  96 NW5G20    30.18R FOG

$$
NMZ532>537-040600-
EASTCENTRAL PLAINS

CITY           SKY/WX    TMP DP  RH WIND       PRES   REMARKS
TUCUMCARI      PTCLDY    75  61  61 CALM      30.01R
CANNON AFB     NOT AVBL
CLOVIS AIRPORT CLEAR     66  63  88 SE6       30.08R

$$
NMZ028-029-538-040600-
SOUTHEAST PLAINS

CITY           SKY/WX    TMP DP  RH WIND       PRES   REMARKS
ROSWELL        PTCLDY    70  66  87 S9        30.02R
ARTESIA        PTCLDY    70  68  94 S8        30.03
CARLSBAD       MOCLDY    76  62  62 SE8       30.00S
HOBBS            N/A    N/A N/A N/A MISG        N/A


$$



USA.gov is the U.S. government's official web portal to all federal, state and local government web resources and services.